Location: Unspecified
(0.0000°N, 0.0000°E)
Time: 23:46:45
(UTC+00:00)

GONETS M 08 (M18) - Pass Details

Date: 24 May 2026
Orbit: 1470 x 1518 km, 82.5° (Epoch: 7 June)

Event Time Altitude Azimuth Distance (km) Brightness Sun altitude
Rises 05:07:26 0° 182° (S) 4,647 ? -11.5°
Reaches altitude 10° 05:10:19 10° 182° (S) 3,669 ? -10.9°
Maximum altitude 05:19:12 86° 93° (E) 1,523 ? -8.8°
Drops below altitude 10° 05:28:05 10° 5° (N) 3,670 ? -6.7°
Sets 05:30:58 0° 5° (N) 4,648 ? -6.0°
